This is the latest recevied weather packets stored in our database for station/object CE4ERM-13. If no packets are shown the sender has not sent any weather packets the latest 10 day(s).
| Time | Temp. | Humidity | Pressure | Rain* | Wind** | Luminosity | Snow |
|---|---|---|---|---|---|---|---|
| 1777831837 | 24.44° C | 35% | 1019.6 hPa | - | - | - | - |
| 1777831617 | 32.22° C | 22% | 1017.3 hPa | - | - | - | - |
| 1777831017 | 32.78° C | 23% | 1016.7 hPa | - | - | - | - |
| 1777830417 | 33.33° C | 22% | 1016.2 hPa | - | - | - | - |
| 1777829815 | 33.33° C | 22% | 1017.6 hPa | - | - | - | - |
| 1777828837 | 23.89° C | 45% | 1021.4 hPa | - | - | - | - |
| 1777828614 | 32.78° C | 23% | 1018.1 hPa | - | - | - | - |
| 1777828013 | 32.22° C | 24% | 1017.4 hPa | - | - | - | - |
| 1777827414 | 31.67° C | 26% | 1017.7 hPa | - | - | - | - |
| 1777827037 | 22.78° C | 48% | 1018.6 hPa | - | - | - | - |
| 1777826813 | 31.67° C | 26% | 1016.2 hPa | - | - | - | - |
| 1777826212 | 31.11° C | 26% | 1017.5 hPa | - | - | - | - |
| 1777825612 | 31.11° C | 24% | 1016.9 hPa | - | - | - | - |
| 1777825010 | 31.11° C | 25% | 1019.7 hPa | - | - | - | - |
| 1777824410 | 31.11° C | 25% | 1018.8 hPa | - | - | - | - |
| 1777823811 | 30.56° C | 25% | 1018.3 hPa | - | - | - | - |
| 1777823209 | 30.56° C | 25% | 1018 hPa | - | - | - | - |
| 1777822609 | 29.44° C | 27% | 1018.7 hPa | - | - | - | - |
| 1777822009 | 29.44° C | 27% | 1018.7 hPa | - | - | - | - |
| 1777821033 | 20° C | 45% | 1017.8 hPa | - | - | - | - |
| 1777820208 | 27.22° C | 30% | 1019.6 hPa | - | - | - | - |
| 1777819608 | 26.67° C | 30% | 1019.4 hPa | - | - | - | - |
| 1777819054 | 18.89° C | 49% | 1018.8 hPa | - | - | - | - |
| 1777819008 | 26.67° C | 31% | 1019.6 hPa | - | - | - | - |
| 1777818453 | 18.33° C | 49% | 1019.5 hPa | - | - | - | - |
* Rain since midnight (hover to see other rain measurements)
** Current wind speed in m/s (hover to see current wind gust speed)